Flag for U.S.A. Weather past 2 weeks in Pierre, South Dakota, U.S.A.

Now
53 °F

Passing clouds.


Feels Like: 50 °F
Forecast: 48 / 73 °F
Wind: 9 mph from North

Location: Pierre Regional Airport

Current Time: May 26, 2015 at 2:50:24 AM

Latest Report: May 26, 2015 at 1:53 AM


Visibility: 10 mi

Pressure: 29.89 "Hg

Humidity: 93%

Dew point: 51 °F

Location of PierreLocation

Historic Weather in Pierre — Graph

°F

Pierre temperature yesterday

Maximum temperature yesterday: 62 °F (at 3:53 PM)
Minimum temperature yesterday: 56 °F (at 6:00 AM)
Average temperature yesterday: 59 °F

Past Weeks' High & Low Weather Summary

 TemperatureHumidityPressure
High79 °F (May 13, 2:53 PM)100% (May 14, 1:53 PM)30.47 "Hg (May 14, 1:53 PM)
Low29 °F (May 19, 5:53 AM)24% (May 21, 5:53 PM)29.46 "Hg (May 17, 8:53 AM)
Average54 °F72%30.00 "Hg
* Reported May 11 12:01 AM — May 26 12:53 AM, Pierre, Weather by CustomWeather, © 2015

Note: Actual official high and low records may vary slightly from our data, if they occured in-between our weather recording intervals... More about our weather records

Advertising

Pierre weather history for previous 24 hours

 ConditionsComfort  
Time TempWeatherWind HumidityBarometerVisibility
12:53 AM
Tue, May 26
56 °FOvercast.8 mph90%29.89 "Hg10 mi
11:53 PM
Mon, May 25
57 °FOvercast.8 mph90%29.88 "Hg10 mi
10:53 PM57 °FOvercast.6 mph90%29.87 "Hg10 mi
9:53 PM58 °FOvercast.6 mph81%29.84 "Hg10 mi
8:53 PM60 °FOvercast.10 mph72%29.82 "Hg10 mi
7:53 PM62 °FOvercast.10 mph67%29.81 "Hg10 mi
6:53 PM62 °FOvercast.13 mph70%29.81 "Hg10 mi
5:53 PM61 °FOvercast.10 mph72%29.82 "Hg10 mi
4:53 PM62 °FOvercast.13 mph73%29.81 "Hg10 mi
3:53 PM62 °FMore clouds than sun.14 mph75%29.80 "Hg10 mi
2:53 PM59 °FOvercast.18 mph84%29.80 "Hg10 mi
1:53 PM60 °FMostly cloudy.16 mph80%29.78 "Hg10 mi
12:53 PM60 °FCloudy.9 mph83%29.77 "Hg10 mi
11:53 AM60 °FMostly cloudy.7 mph83%29.76 "Hg10 mi
10:53 AM60 °FOvercast.8 mph86%29.77 "Hg10 mi
9:53 AM59 °FMostly cloudy.8 mph87%29.76 "Hg10 mi
8:53 AM57 °FLow clouds.8 mph96%29.77 "Hg10 mi
7:53 AM57 °FMostly cloudy.7 mph96%29.76 "Hg10 mi
6:53 AM56 °FFog.7 mph100%29.76 "Hg3 mi
6:00 AM56 °FFog.6 mph100%29.76 "Hg3 mi
5:01 AM57 °FFog.5 mph96%29.75 "Hg1 mi
4:53 AM57 °FFog.5 mph96%29.74 "Hg2 mi
4:00 AM57 °FFog.5 mph100%29.77 "Hg2 mi
2:53 AM57 °FFog.6 mph100%29.75 "Hg3 mi
Weather by CustomWeather, © 2015

See weather overviewHow to use our weather pages